Location: İstanbul
(41.0082°N, 28.9784°E)
Time: 01:30:09
(UTC+03:00)

DOVE 4 - Pass Details

Date: 02 May 2024
Orbit: 582 x 778 km, 97.7° (Epoch: 28 May)

Event Time Altitude Azimuth Distance (km) Brightness Sun altitude
Rises 22:52:18 0° 10° (N) 2,989 ? -25.9°
Reaches altitude 10° 22:54:28 10° 8° (N) 2,103 ? -26.2°
Maximum altitude 22:59:04 73° 285° (WNW) 730 ? -26.6°
Enters shadow 22:59:06 73° 281° (W) 731 ? -26.6°
